Wind_Speed
43 41 39 37 36 36 36 35 33 34 36 37 38 39 41 44 48 51 53 55 55 54 52 50 49 46 44 43 42 40 37 35 34 34 34 34 35 35 35 34 37 41 43 41 39 39 39 38 37 35 36 39 41 44 46 47 53 63 70 69 62 55 52 54 57 58 59 59 59 57 56 58 60 63 62 60 59 59 61 63 65 66 67 66 64
38 36 36 35 35 35 35 35 34 34 35 37 37 39 41 42 44 46 49 51 53 53 52 50 48 46 43 42 42 41 38 35 33 33 33 33 33 34 34 33 35 39 42 41 39 39 39 38 37 34 33 36 39 41 44 45 47 52 60 69 72 66 58 56 59 62 61 58 58 57 56 56 57 60 62 62 60 59 60 61 62 64 65 66 66
35 35 35 34 34 33 32 33 33 32 33 35 36 37 39 41 41 43 45 47 48 49 49 48 47 45 42 42 43 42 38 34 33 32 32 32 32 34 34 34 36 38 41 42 39 37 38 38 36 34 32 33 36 38 41 43 44 46 49 56 66 70 68 63 60 62 64 63 61 59 57 55 55 56 58 60 60 59 58 59 61 63 64 64 65
33 33 32 32 32 31 31 30 29 29 29 30 32 33 36 38 40 41 41 42 44 44 45 45 44 43 41 41 43 41 36 34 34 33 32 32 32 33 34 34 35 37 40 42 39 36 36 37 36 34 32 32 33 35 37 40 42 43 45 47 52 60 66 68 67 64 62 61 62 63 60 57 55 54 56 58 58 58 58 58 60 62 64 64 64
30 30 30 30 31 31 31 29 26 25 24 24 26 27 30 33 36 38 38 39 40 40 41 41 40 39 38 39 41 39 35 33 34 33 32 32 31 33 33 33 33 35 38 41 40 37 36 36 36 33 31 31 32 32 34 37 39 40 42 43 46 49 55 61 66 68 67 63 60 61 62 60 58 56 55 57 58 58 59 60 60 62 64 65 65
29 29 28 30 31 31 31 29 27 25 23 20 20 21 23 26 30 32 34 36 36 36 36 35 34 34 35 36 38 37 34 33 33 33 32 32 31 32 33 32 32 34 36 39 40 37 35 35 34 31 31 31 31 31 32 33 35 37 38 39 41 44 47 51 56 61 67 67 65 63 62 61 60 58 57 57 59 60 60 61 61 62 64 66 67
28 28 28 29 30 30 30 29 28 26 23 20 17 16 17 20 23 26 29 30 29 28 28 28 28 29 31 32 34 34 33 32 32 32 32 32 31 32 33 33 33 34 36 38 39 37 34 33 32 30 30 31 31 30 31 32 33 33 34 36 37 39 41 44 48 52 58 62 65 66 64 61 60 59 57 56 58 60 61 62 63 63 64 66 67
27 28 29 29 28 29 30 30 29 27 24 21 17 14 13 14 16 18 21 22 21 21 21 22 23 24 25 27 30 31 30 30 31 31 32 31 30 31 33 34 33 34 36 38 40 38 35 32 31 30 29 29 29 28 29 30 30 29 30 32 33 35 36 38 41 46 50 55 59 61 61 62 62 61 59 58 58 59 61 62 64 65 64 65 66
28 28 28 28 28 29 30 29 29 27 25 22 18 15 11 9 9 10 12 13 14 15 15 15 16 18 20 22 24 26 28 28 30 31 31 31 30 30 31 33 34 34 36 39 40 38 36 33 31 29 28 26 26 26 26 27 27 28 28 29 29 31 32 33 36 41 44 49 53 55 54 57 62 64 64 61 58 57 58 59 60 61 61 61 63
28 28 28 28 28 29 28 28 27 26 26 24 21 18 14 11 8 6 5 5 5 7 7 8 10 12 14 17 19 22 24 25 27 28 29 28 29 29 29 31 33 34 35 38 40 38 36 33 30 29 27 25 24 24 24 25 25 26 27 28 29 29 29 31 35 38 41 44 48 51 50 51 56 62 64 63 58 56 57 58 57 57 58 59 60
27 27 26 27 28 28 28 28 28 27 27 26 24 23 20 17 15 13 11 9 8 6 4 3 4 5 8 11 14 17 19 20 22 24 25 25 25 27 27 29 31 33 35 37 39 38 35 32 30 29 27 24 23 23 24 25 24 25 26 27 28 29 29 31 35 37 39 40 44 47 48 48 51 56 61 62 60 58 57 57 57 57 57 57 58
25 24 26 27 27 28 28 28 28 29 29 28 27 25 24 22 21 19 17 16 14 12 10 8 6 3 3 5 9 11 13 16 17 18 20 21 22 25 26 27 30 33 35 37 37 37 36 33 30 29 27 23 22 23 24 25 25 25 26 25 25 28 29 30 34 37 38 38 39 43 45 45 47 52 57 60 60 58 56 56 56 57 57 56 56
23 23 25 25 26 27 28 28 28 29 29 29 29 28 26 26 25 24 22 20 18 16 14 12 9 6 3 2 3 6 9 11 14 15 17 18 20 23 25 26 28 32 35 37 37 36 35 33 31 30 27 24 23 23 23 23 24 26 26 25 24 27 28 29 33 38 39 38 37 38 40 41 43 46 50 53 54 54 55 55 55 56 57 57 55
21 22 23 24 24 25 26 27 27 27 27 28 28 28 27 26 26 26 25 23 21 18 15 13 12 10 8 6 4 3 4 6 9 12 14 16 18 21 22 24 26 30 33 36 36 35 33 33 32 31 28 26 25 24 23 22 23 24 26 26 26 27 28 29 31 35 38 38 38 36 36 37 38 38 38 39 42 45 49 52 53 53 54 55 53
19 21 21 21 22 23 24 25 24 24 24 23 23 24 24 24 24 24 23 22 21 19 18 16 14 12 11 10 8 7 6 5 5 6 8 11 15 17 19 20 22 26 29 31 33 32 31 31 32 31 30 29 28 26 25 24 24 24 26 26 27 28 29 28 29 31 34 35 35 36 35 35 36 35 33 32 33 36 39 42 45 47 49 50 50
17 19 19 19 20 21 22 23 23 23 21 19 19 19 20 20 21 21 21 20 19 18 17 16 14 11 9 7 6 7 8 8 8 6 5 5 7 9 12 15 18 21 23 25 27 29 30 31 33 33 32 32 31 29 27 26 26 26 26 26 27 28 29 27 27 28 30 31 32 33 34 35 35 35 34 32 32 32 34 37 40 42 45 47 47
16 17 18 18 18 19 20 21 22 21 21 20 18 17 17 18 19 20 20 20 19 17 15 14 12 11 9 6 4 4 6 7 6 7 6 5 3 3 5 9 13 17 19 21 24 26 29 31 32 33 33 33 33 31 30 30 28 27 28 28 27 28 28 26 26 27 27 28 30 31 31 32 33 34 35 34 33 33 33 35 37 38 41 42 43
15 16 16 17 18 18 18 19 19 20 20 20 19 18 17 18 18 19 18 18 18 16 15 14 13 12 12 10 7 7 8 9 8 8 8 7 6 5 6 7 10 12 14 16 19 22 26 29 31 33 34 33 33 33 33 32 30 29 29 29 28 28 27 25 26 26 25 26 27 29 30 31 32 33 34 35 35 35 35 35 36 37 38 39 38
15 16 16 17 17 17 17 18 18 19 20 19 18 18 17 18 19 20 20 20 19 18 16 15 14 14 14 13 12 11 10 11 12 12 12 11 11 11 11 11 11 11 11 13 16 18 20 23 27 31 34 34 34 34 34 34 31 29 29 30 30 28 26 25 26 26 25 24 25 26 28 30 31 31 32 33 34 34 34 35 35 36 37 37 38
15 16 16 16 16 16 16 17 17 18 19 18 17 17 18 19 20 21 22 23 22 21 19 17 15 15 14 14 14 14 13 13 13 14 14 15 16 15 15 15 15 15 16 17 18 17 16 17 19 21 25 30 33 34 34 33 31 29 29 30 30 27 25 25 26 26 25 24 24 25 26 27 29 29 30 31 31 31 32 33 33 34 35 36 37
15 15 16 16 15 16 15 15 17 18 17 16 16 17 18 19 19 20 23 24 24 23 21 19 17 16 15 14 14 14 15 15 15 15 15 16 18 19 19 18 18 19 19 20 20 19 17 16 16 16 17 21 27 31 32 32 31 30 29 28 27 25 25 25 26 26 25 25 25 26 26 27 28 29 30 30 30 30 30 31 31 32 33 34 35
14 15 15 15 15 15 15 15 16 17 16 14 14 16 18 19 19 22 24 25 26 25 23 21 19 18 17 17 17 15 13 13 14 16 16 17 18 19 20 20 21 21 21 21 21 21 20 19 18 18 17 18 21 25 28 28 28 28 28 26 25 25 25 25 25 26 25 25 26 26 27 28 29 29 30 30 29 28 29 30 30 31 31 32 33
15 15 15 15 15 15 15 15 15 16 15 13 13 15 17 18 20 23 24 25 26 26 24 22 21 19 17 17 18 17 15 12 11 13 16 17 17 18 19 19 20 21 22 22 22 22 22 21 21 20 21 21 21 23 25 26 26 27 26 25 25 25 26 26 26 26 25 26 26 27 27 28 28 29 29 29 29 28 28 29 29 30 31 32 33
15 15 14 15 16 16 16 16 17 16 14 12 12 14 15 18 20 22 24 26 26 26 26 24 21 18 16 16 16 16 14 12 10 9 12 14 16 16 17 18 19 19 20 20 21 22 23 23 23 23 23 24 24 25 26 27 27 28 27 26 25 25 26 27 27 26 26 26 27 27 27 27 27 27 27 27 27 27 27 27 28 29 30 31 33
15 15 14 15 16 16 17 17 18 17 14 13 13 14 15 18 20 22 23 25 25 27 27 24 21 17 16 15 14 13 12 11 9 7 6 7 9 11 13 15 17 19 20 20 21 22 23 24 25 26 26 27 27 27 28 28 28 27 26 26 25 26 27 28 27 27 27 27 27 27 27 27 27 26 26 27 27 27 27 27 28 29 29 30 31
16 16 15 16 16 16 16 16 17 18 16 15 17 17 18 20 20 20 21 23 24 25 25 23 20 18 18 18 17 16 15 13 11 10 8 6 5 6 7 10 12 15 18 20 22 23 24 25 26 27 27 28 28 28 28 28 27 27 26 25 25 26 27 28 28 28 29 28 28 28 28 28 28 28 29 29 29 30 29 28 28 30 31 30 31
16 16 16 16 15 15 15 15 16 17 16 16 17 18 19 20 19 18 19 21 22 23 24 25 24 22 21 19 18 17 15 13 12 11 9 8 7 6 6 6 7 8 10 12 15 19 22 25 27 28 29 29 29 29 29 29 28 27 26 25 26 26 27 27 27 27 27 28 28 28 28 28 29 29 30 30 30 31 31 31 31 32 33 32 32
15 16 16 17 16 16 16 16 17 18 18 17 16 15 16 18 19 19 21 23 24 26 26 27 25 23 21 19 16 15 14 13 12 11 10 10 9 9 9 8 8 8 7 7 9 11 15 18 21 24 27 30 31 31 31 30 29 28 27 27 27 27 27 27 26 26 26 26 26 26 27 27 28 29 29 29 30 32 32 32 32 33 33 32 32
16 15 16 16 16 17 17 18 18 18 18 18 17 16 17 18 19 20 23 25 26 27 27 26 24 22 21 19 15 13 13 12 11 10 10 10 10 10 10 10 9 9 8 7 7 8 10 12 13 15 18 23 28 30 31 31 30 30 30 30 29 28 28 29 28 27 26 26 26 27 27 28 28 28 28 27 27 29 30 30 31 31 32 32 32
15 15 15 16 16 17 18 18 19 18 16 16 16 17 18 20 21 22 23 25 25 24 22 22 20 19 19 18 15 13 12 12 10 8 9 9 9 10 11 10 10 10 9 7 6 6 7 9 11 12 13 15 18 23 27 29 30 31 32 33 33 33 31 30 28 28 28 29 29 29 29 28 28 28 27 25 25 26 28 28 29 29 30 30 30
14 14 15 15 16 18 19 19 18 17 16 15 14 15 17 20 22 24 24 25 24 22 20 19 17 15 16 16 14 12 12 11 9 7 7 8 9 10 10 10 10 10 8 7 6 5 5 7 9 10 12 12 13 15 19 22 25 28 29 29 30 32 33 32 31 30 31 32 32 32 30 30 29 29 27 25 24 25 26 27 28 28 28 29 29
14 13 14 15 16 17 19 19 18 15 14 14 13 13 15 17 20 22 23 24 24 22 19 18 16 14 14 15 13 11 10 10 9 7 7 7 9 10 11 11 10 9 7 6 4 3 4 5 7 9 11 12 12 13 15 17 19 21 22 21 22 25 28 31 32 33 33 32 32 32 31 31 30 29 28 27 26 26 26 26 27 28 27 27 27
17 14 13 13 14 15 17 18 16 14 13 13 13 14 15 16 17 18 19 22 24 22 19 17 16 15 13 13 12 11 10 9 8 7 7 8 9 11 12 12 11 9 8 6 4 2 1 3 6 7 9 10 11 12 13 14 16 17 18 19 20 21 23 25 28 31 32 32 31 30 30 30 30 30 29 28 27 26 26 26 27 27 26 26 26
19 17 14 13 13 14 15 15 15 13 13 13 15 16 17 19 21 22 21 21 21 20 18 16 15 15 13 12 11 11 9 9 8 7 7 8 10 12 13 13 11 10 9 8 7 5 2 0 3 5 7 9 10 11 12 13 13 15 16 18 19 20 21 22 24 26 27 28 28 28 28 29 29 29 28 26 25 25 26 26 27 26 26 26 26
19 18 16 15 15 15 15 14 14 13 13 14 15 17 19 22 24 26 26 25 22 21 19 16 15 14 13 11 10 9 9 8 8 7 7 8 9 11 14 14 12 10 10 9 8 6 4 3 2 4 7 8 10 10 11 12 13 14 16 17 18 19 18 18 19 19 20 21 22 24 25 25 25 25 24 23 23 24 25 25 26 26 27 27 27
17 17 16 16 16 17 16 16 16 15 14 15 16 17 20 23 25 27 29 28 26 25 22 18 15 14 12 11 9 8 8 8 8 8 8 7 8 11 14 14 13 10 10 10 9 7 5 4 3 4 6 8 9 10 11 12 13 14 15 16 16 16 16 16 16 16 17 17 18 19 19 20 20 21 20 20 21 22 22 23 24 24 25 25 25
16 16 16 16 17 18 18 18 18 17 15 16 17 18 21 23 26 28 29 29 28 27 23 18 15 13 12 10 9 7 7 7 7 8 7 8 8 11 13 13 12 10 9 10 10 9 7 5 3 2 3 5 7 8 9 10 11 12 13 13 13 13 14 15 15 15 15 15 16 16 16 17 18 18 19 19 20 21 21 21 22 22 22 22 22
17 17 18 18 18 18 18 19 19 18 17 17 18 19 21 24 27 29 30 29 29 27 22 18 15 12 10 8 7 6 5 5 6 6 7 7 8 9 11 12 11 10 9 9 10 11 10 8 6 4 2 2 4 6 7 7 8 9 10 11 11 11 12 12 13 13 14 14 14 14 14 15 17 17 18 19 19 19 19 19 19 18 18 18 18
18 18 19 19 19 18 18 19 19 18 18 18 19 20 22 24 27 28 29 29 28 25 22 19 16 12 9 7 5 5 4 4 4 4 5 5 6 8 10 11 11 10 9 8 10 11 11 10 8 7 5 3 3 4 4 5 6 7 7 8 8 8 9 10 10 11 11 11 11 11 11 12 14 15 16 16 16 16 16 15 15 15 15 16 16
18 18 18 19 19 18 18 18 19 19 18 19 20 22 24 25 27 28 28 28 26 22 20 18 16 12 9 6 4 3 3 3 3 2 2 3 5 7 8 10 10 10 8 8 8 9 10 10 9 8 7 6 6 6 6 6 7 7 7 7 7 7 8 9 10 10 10 9 9 9 9 11 12 12 13 13 13 14 14 14 14 15 15 15 15
19 18 18 18 18 18 18 18 18 19 19 20 22 24 25 26 27 27 27 26 23 20 19 18 16 13 9 6 5 3 2 3 2 1 1 2 3 5 6 8 8 8 8 7 7 8 8 9 10 10 9 9 9 9 8 9 9 9 9 9 9 8 8 9 9 9 9 8 8 9 9 9 10 10 10 10 10 11 11 11 12 12 12 12 12
19 19 19 18 18 18 18 18 18 19 20 22 24 25 25 26 26 26 25 23 20 19 18 17 15 14 11 8 7 4 2 2 1 0 1 0 2 3 4 5 6 7 7 6 6 6 7 8 9 9 9 9 9 9 9 10 10 11 11 11 10 10 9 9 8 8 8 8 9 9 9 9 9 9 10 10 9 9 9 9 10 10 10 10 11
20 19 19 19 19 19 19 19 19 20 21 23 24 24 25 25 25 24 22 19 17 17 17 16 15 13 11 9 7 5 3 2 1 1 1 1 1 2 3 4 5 5 6 6 6 6 7 7 8 9 9 9 9 9 9 9 9 10 11 12 11 11 10 10 10 9 9 9 9 9 9 9 9 9 9 9 8 8 8 8 8 9 9 10 11
20 18 18 18 18 19 19 20 20 21 22 23 23 23 23 23 22 21 19 16 15 15 16 16 15 13 11 9 8 6 5 3 2 2 2 2 1 2 2 3 4 4 5 6 6 6 6 6 7 8 8 9 9 9 9 8 8 8 8 9 10 11 11 10 10 9 9 9 8 8 7 7 7 7 7 6 6 6 6 7 8 9 10 11 12
23 19 17 17 17 17 18 19 20 20 21 22 21 21 21 20 19 18 15 13 13 14 15 15 15 14 13 11 9 7 5 4 3 2 2 2 1 2 2 3 3 3 4 6 6 6 6 6 6 7 7 8 9 9 9 9 8 7 6 6 7 8 8 8 8 8 7 7 7 6 6 6 6 6 6 6 6 7 7 8 10 11 12 13 15
28 24 20 17 16 16 17 18 18 19 19 19 19 18 18 18 17 15 13 12 12 13 14 15 15 15 14 13 10 8 6 5 4 3 2 2 3 3 3 4 4 4 5 5 6 6 6 6 6 6 6 7 8 9 10 10 10 9 8 7 7 7 7 7 6 6 6 6 5 5 5 5 5 5 5 6 7 8 9 10 12 13 14 16 17
32 28 24 20 18 18 17 18 18 18 17 17 16 16 16 16 15 14 13 12 11 12 13 14 14 15 15 14 12 10 8 7 6 5 4 4 4 4 4 5 5 5 5 5 4 4 5 5 5 5 6 6 7 9 10 10 10 9 8 7 7 6 5 5 4 4 3 3 3 3 3 4 5 6 7 8 9 11 12 13 15 16 17 19 20
32 30 28 25 22 19 18 18 18 17 17 16 16 15 15 15 14 13 12 11 11 11 12 13 13 14 14 14 13 11 10 9 8 7 6 5 4 4 4 5 5 5 4 4 3 3 3 3 3 3 4 5 6 8 8 8 7 6 5 5 4 4 3 3 2 2 3 3 4 4 5 6 7 9 10 11 12 14 15 16 17 18 19 20 21
30 29 29 27 25 22 20 18 17 17 17 16 16 15 15 14 13 12 11 11 11 11 11 12 12 12 12 13 12 12 10 9 8 8 7 6 5 5 5 5 5 4 3 3 3 2 2 2 2 3 3 4 5 6 6 6 5 4 4 4 4 4 4 4 4 4 5 6 6 7 8 9 10 12 13 14 15 16 16 17 17 18 18 19 20
29 28 28 27 26 25 23 21 19 17 16 15 15 14 14 13 13 12 10 10 10 10 10 11 11 11 11 11 11 11 10 9 8 7 6 6 5 4 4 4 3 3 2 2 2 2 2 2 3 3 4 5 5 6 6 6 5 5 5 5 5 5 5 6 6 6 7 8 9 10 11 12 12 13 14 14 15 15 15 16 16 17 18 19 20
29 28 27 26 25 24 23 22 21 19 17 15 14 14 14 13 12 11 10 10 9 9 9 10 10 10 10 10 9 9 9 8 8 7 7 6 5 4 4 3 3 2 2 1 0 1 1 2 3 3 4 5 6 6 7 7 7 7 7 7 7 7 7 8 8 9 10 11 11 12 12 13 13 13 13 14 14 15 15 16 17 17 18 19 20
Wind_Direction
312 310 309 307 303 300 297 293 288 282 277 273 269 266 262 259 258 257 256 257 258 259 260 260 260 260 260 261 263 263 260 257 253 247 244 246 250 251 251 250 246 239 233 232 235 239 242 244 245 244 242 241 241 240 240 238 236 235 236 238 238 237 236 237 236 235 233 234 234 234 235 234 232 229 228 226 225 225 227 228 230 231 233 234 234
317 315 314 311 308 305 301 296 291 284 278 272 268 265 262 261 260 259 258 258 258 259 260 260 260 260 259 259 261 260 257 255 253 246 243 247 250 250 249 247 244 238 232 230 233 237 241 242 243 243 242 243 243 242 241 240 239 236 235 236 238 238 239 240 240 238 236 235 234 234 235 236 235 234 231 229 227 226 226 227 228 229 230 232 233
322 321 319 318 316 313 309 304 298 290 282 275 269 265 262 261 260 259 259 259 259 259 259 260 260 260 258 256 255 254 252 252 250 244 243 247 249 247 247 245 241 235 231 229 231 236 239 241 242 241 240 242 244 244 243 241 240 240 238 236 237 237 238 239 240 241 241 241 238 237 236 236 236 236 234 232 229 227 226 227 227 228 229 230 231
327 327 327 326 326 324 321 317 309 301 292 283 276 269 263 260 257 256 257 257 259 259 259 259 258 258 255 251 249 249 249 249 247 243 243 248 248 245 247 248 242 235 231 228 229 233 237 239 241 241 241 242 244 245 245 243 242 241 241 240 238 237 237 238 239 239 241 244 243 240 238 238 238 237 235 233 230 228 228 228 228 229 229 230 230
335 336 336 337 338 337 334 331 325 317 307 295 286 276 268 262 257 255 255 255 256 256 256 256 255 254 251 248 247 247 247 246 245 244 244 247 247 245 245 248 244 237 232 229 227 230 234 237 239 241 242 244 245 246 247 246 244 242 241 242 241 239 238 237 238 238 239 241 243 242 240 239 239 239 238 236 233 232 231 230 231 231 232 232 231
345 346 348 349 349 347 344 342 339 333 325 314 301 287 276 266 259 256 255 255 256 257 258 257 256 253 250 247 246 246 245 244 244 244 246 248 247 244 244 244 241 237 234 230 227 228 232 234 237 240 242 244 247 249 250 249 246 243 241 241 243 242 240 238 237 237 238 239 241 242 241 241 241 241 241 240 238 237 236 235 234 234 234 235 234
353 355 357 358 357 355 353 352 350 346 339 332 324 309 292 277 265 259 257 258 260 261 263 262 258 254 251 248 246 245 244 244 245 246 248 249 246 243 243 242 239 237 234 231 227 226 229 232 235 238 241 245 250 251 250 250 249 246 242 241 242 242 241 239 238 237 237 238 239 240 241 240 241 242 242 243 242 240 238 238 237 237 237 237 238
360 3 3 3 3 3 2 1 358 356 352 348 343 335 319 299 284 272 267 267 265 262 261 258 254 253 252 250 247 246 245 243 245 247 248 249 246 244 243 241 238 235 233 231 227 226 228 231 234 239 242 245 250 251 251 251 250 248 243 240 241 242 241 239 239 238 238 237 237 239 240 239 239 240 241 243 243 241 239 239 239 238 238 238 239
5 7 5 6 8 8 8 7 5 5 4 3 2 359 351 334 314 296 284 278 272 268 266 260 256 253 251 249 247 246 245 244 245 247 247 247 247 247 245 241 238 236 232 230 228 227 229 232 235 238 241 244 249 250 250 250 247 244 242 240 240 242 241 237 237 239 239 238 237 237 239 238 237 237 238 241 243 244 241 239 238 238 237 237 238
8 8 8 11 14 15 15 14 14 15 16 17 19 20 22 21 17 8 347 326 305 296 287 271 262 252 247 246 243 243 244 244 246 247 248 248 249 250 249 244 241 237 232 229 227 227 229 232 234 236 239 243 247 247 246 246 244 241 242 242 240 239 238 234 233 236 237 238 238 239 240 240 237 236 237 238 241 244 243 241 240 239 238 237 237
11 11 16 20 21 22 23 23 25 26 26 28 30 33 37 40 43 46 44 41 34 19 1 329 294 265 253 250 248 248 247 247 248 248 249 249 248 248 248 245 241 236 232 230 227 225 227 229 231 233 236 241 245 245 244 243 241 239 241 243 242 240 237 233 232 233 232 232 235 238 241 243 241 237 236 237 239 242 243 243 243 242 241 240 239
16 20 25 27 27 28 29 30 32 33 34 35 36 39 42 45 49 51 52 53 51 48 46 39 29 1 301 271 261 259 255 253 252 250 250 249 248 248 246 243 239 233 229 229 228 224 224 225 227 230 234 240 244 246 246 243 239 237 239 243 244 242 239 234 233 233 230 228 230 234 238 242 242 238 235 235 236 238 241 242 243 244 244 244 242
24 29 31 32 33 34 35 36 36 37 38 38 39 41 44 47 50 51 53 55 55 55 57 54 51 42 18 320 273 266 260 259 258 254 254 252 251 252 249 244 239 232 227 227 227 226 224 223 224 228 233 238 243 247 249 245 240 237 237 239 242 242 240 234 232 233 233 229 226 229 233 237 238 236 233 232 232 234 236 239 242 244 245 245 245
31 34 34 34 36 37 37 38 38 38 39 40 40 41 44 47 49 50 50 49 48 50 55 58 59 54 46 38 16 336 289 273 266 259 257 253 250 252 253 248 240 232 227 226 227 228 225 224 225 229 233 238 241 244 247 247 243 240 238 239 239 239 239 236 232 232 234 232 228 226 227 230 233 233 231 229 229 230 232 235 239 241 242 241 241
36 35 35 34 35 35 35 36 37 37 39 42 43 43 45 48 50 50 48 45 41 40 40 43 46 49 48 38 19 4 355 337 310 278 260 251 247 249 252 250 240 230 226 226 229 231 231 230 232 233 237 239 239 240 243 245 245 243 241 241 240 239 239 239 237 234 234 234 231 228 226 225 227 228 227 226 226 227 229 231 233 236 236 235 234
37 35 34 33 33 35 36 35 35 35 35 38 41 43 45 45 46 45 43 40 37 34 31 28 23 22 32 35 14 357 355 348 338 331 312 268 250 249 254 252 238 226 222 223 228 233 235 238 239 240 241 240 236 236 239 241 242 242 243 243 243 243 242 241 240 238 235 233 232 230 228 226 226 227 227 226 225 224 225 226 228 230 231 231 231
36 33 30 29 29 33 35 35 34 33 33 34 36 39 41 40 39 36 34 33 31 28 26 20 10 0 359 357 334 313 320 323 319 316 312 297 270 255 262 255 237 223 218 219 223 227 230 234 236 237 237 235 232 233 236 238 238 239 242 242 242 244 245 243 242 241 237 235 233 231 230 229 227 227 228 229 228 227 226 225 226 227 228 229 229
34 28 24 23 23 26 28 28 29 32 35 37 41 43 42 41 38 34 31 27 22 17 13 7 358 350 343 336 321 296 282 281 277 273 274 270 255 241 243 253 249 236 225 223 227 229 230 232 233 233 232 230 229 229 232 235 236 236 239 241 241 243 245 244 244 243 239 236 235 233 232 231 230 229 229 230 231 231 230 229 227 226 226 226 227
32 27 25 22 20 20 19 18 23 31 34 37 43 45 39 34 30 26 21 15 9 3 357 349 340 334 329 323 317 306 288 276 267 261 258 254 248 242 238 243 251 252 244 239 239 240 238 237 238 237 235 231 228 227 229 231 234 235 237 240 241 243 244 243 244 244 241 237 236 236 235 234 234 233 232 233 234 235 235 234 232 231 230 228 228
26 24 22 20 18 14 12 17 24 29 31 33 37 36 28 23 20 17 12 8 2 357 351 344 336 329 321 311 304 299 293 283 270 262 256 251 249 247 245 244 245 245 244 244 247 251 249 246 246 245 239 232 227 226 226 229 233 235 237 240 242 244 245 244 242 242 240 236 234 235 236 236 236 235 235 235 236 236 237 238 237 236 235 233 233
19 17 16 17 17 14 16 23 27 27 29 30 30 26 21 19 17 14 10 6 2 359 356 353 348 339 329 318 306 295 287 281 275 269 263 255 252 251 250 250 250 248 248 246 247 251 253 252 251 252 246 235 226 224 225 228 233 235 237 241 244 244 243 242 239 237 236 233 231 231 232 234 235 235 234 234 234 235 237 238 239 239 239 238 237
13 12 13 17 19 19 24 29 29 28 29 29 25 19 16 15 14 12 9 4 3 4 2 358 354 347 339 331 324 315 301 285 272 267 264 260 257 254 252 251 250 249 251 251 250 251 252 251 249 246 244 238 229 225 225 226 231 235 238 241 241 239 238 237 236 235 233 231 231 230 230 232 233 235 236 235 233 233 234 235 236 237 238 239 238
9 10 14 17 19 21 26 30 31 31 29 25 18 12 12 13 11 9 7 4 5 6 4 2 359 354 346 337 331 328 323 309 284 265 260 259 259 258 256 255 252 250 250 250 251 251 250 248 245 242 240 237 232 228 227 227 231 236 239 240 238 236 236 234 234 234 233 232 233 232 232 232 232 234 235 235 233 231 230 232 233 233 235 236 237
8 10 13 15 17 20 24 29 31 30 28 23 13 8 11 12 9 7 5 4 5 6 6 6 4 356 347 341 337 335 332 326 313 288 269 263 262 262 262 262 262 260 256 252 252 251 249 247 243 240 237 236 234 233 231 232 235 237 239 239 236 235 235 233 231 232 232 233 235 236 236 236 236 236 238 239 238 236 234 235 236 236 235 235 236
8 10 12 15 16 16 17 20 22 20 18 17 13 11 11 11 10 9 4 360 1 5 7 7 5 359 355 356 359 1 360 357 354 345 319 288 275 271 269 268 267 266 263 259 255 252 251 249 246 243 239 235 234 233 233 234 235 235 235 235 233 230 232 232 231 230 230 232 235 237 238 239 240 241 243 244 245 244 242 241 242 243 242 239 239
7 8 9 10 12 12 10 10 10 8 7 9 11 10 9 10 11 8 1 357 360 4 5 5 6 8 7 8 13 19 20 21 22 18 13 2 338 312 294 282 275 271 268 263 258 254 252 250 249 247 244 240 236 234 234 234 233 232 231 231 230 229 230 231 231 231 232 233 234 236 237 238 239 241 242 244 247 249 249 248 247 248 248 246 243
6 6 6 6 7 7 7 6 2 358 1 8 10 7 5 5 5 1 357 357 359 2 4 4 6 11 12 10 11 13 15 20 25 25 27 25 15 2 344 320 300 290 283 274 265 256 250 247 247 246 246 244 241 237 234 232 231 230 230 229 229 230 231 233 235 235 236 236 237 237 238 239 240 241 242 245 248 250 252 251 248 248 248 248 246
3 3 2 2 1 1 2 2 358 355 357 3 5 5 3 0 357 356 356 357 358 0 2 3 3 6 7 6 6 4 2 5 13 18 24 25 20 11 1 347 331 317 307 300 291 272 255 247 244 244 244 243 242 240 237 234 230 229 230 231 231 232 232 234 236 235 235 238 241 243 244 244 244 245 245 246 248 250 249 248 246 246 246 246 247
356 358 357 355 353 353 353 353 353 356 358 356 356 359 1 1 359 358 357 356 356 357 357 356 357 360 0 360 2 4 1 2 5 8 11 16 16 10 1 352 341 327 311 301 299 290 274 257 244 240 240 240 239 239 239 237 233 230 229 231 232 233 233 235 237 237 236 238 241 244 247 248 248 248 247 246 246 245 244 242 242 242 243 243 244
347 349 348 347 346 347 346 346 349 355 359 356 352 353 356 360 1 359 357 357 356 354 353 352 352 351 352 354 358 2 6 9 12 8 6 11 14 8 359 351 342 330 314 300 286 277 273 261 244 234 231 230 231 231 232 233 234 233 233 233 232 232 232 234 237 239 240 240 241 243 246 249 251 253 253 249 245 243 240 238 237 238 239 240 242
341 340 340 340 341 342 344 345 348 353 356 357 356 355 356 360 1 359 358 357 356 355 354 352 350 344 343 347 352 357 6 14 20 18 13 14 13 6 359 351 343 333 322 311 291 265 256 248 239 231 223 216 214 213 215 220 225 229 233 234 232 231 230 229 230 232 234 237 239 241 245 250 254 256 257 253 248 243 239 236 235 236 238 238 238
341 338 336 336 338 340 342 346 350 354 355 357 359 358 358 0 3 2 357 352 351 354 353 352 350 344 337 337 342 351 2 11 14 14 15 16 14 9 2 354 345 339 336 333 322 283 248 235 229 225 219 212 206 203 203 207 211 217 221 224 225 226 227 227 228 230 233 236 239 242 246 249 251 254 255 254 248 241 235 233 233 234 236 236 235
344 343 341 339 339 340 342 345 350 353 354 354 356 355 355 355 357 360 356 348 345 346 346 346 347 345 338 332 335 341 351 1 6 5 0 3 11 11 5 358 351 348 350 358 7 3 281 234 226 221 218 215 211 207 206 208 210 212 213 215 218 222 224 226 228 230 234 237 238 240 242 243 244 247 249 248 243 235 230 229 230 231 233 233 234
347 347 349 347 343 342 343 345 346 348 350 351 351 352 354 352 350 351 352 350 346 344 342 339 339 342 341 336 332 333 339 349 353 347 341 348 360 5 4 1 358 355 0 13 25 34 46 125 215 220 218 214 211 209 208 208 209 209 209 210 211 212 216 221 225 228 232 235 236 237 238 239 240 241 241 239 234 229 226 226 228 230 232 233 234
353 351 351 350 345 343 345 345 343 342 344 346 348 350 350 349 348 347 348 349 349 347 343 337 332 334 335 335 333 334 340 343 338 329 327 335 347 356 2 7 6 1 6 20 31 41 61 91 151 207 219 216 211 209 208 208 207 209 210 210 209 209 212 218 222 225 228 231 232 234 234 234 234 233 232 230 229 227 226 228 230 232 234 234 234
358 354 350 347 345 345 346 345 342 341 340 343 348 349 346 345 346 347 346 346 345 344 342 338 333 329 327 328 331 334 340 339 327 319 321 328 341 356 4 9 11 10 12 24 36 47 64 92 136 194 219 222 217 215 214 213 213 215 217 217 215 213 213 214 214 216 219 222 225 227 227 227 227 225 224 225 226 227 229 231 231 232 232 230 230
357 354 350 347 345 345 346 346 346 346 346 346 347 345 344 344 344 344 344 343 343 343 344 343 339 330 323 322 323 324 329 324 312 309 316 324 341 0 8 11 16 21 23 29 42 55 65 75 91 147 216 227 226 225 225 222 219 218 217 216 214 212 212 212 213 214 214 213 214 215 216 216 217 217 218 222 224 225 226 225 224 223 222 221 221
346 346 345 343 342 344 346 349 350 350 350 348 344 342 343 343 342 342 342 343 343 344 345 346 344 336 324 317 312 309 313 311 308 315 324 329 343 1 9 13 22 32 36 41 49 58 68 75 81 91 115 183 215 221 224 221 215 212 212 212 211 212 214 217 218 217 213 208 205 206 208 211 213 214 215 217 218 217 217 216 214 214 214 215 216
336 337 338 338 338 340 343 346 348 347 345 342 339 339 341 342 341 341 342 344 345 344 344 346 346 340 332 323 312 301 298 303 312 320 321 326 347 5 11 17 26 35 45 53 54 57 65 72 77 86 99 117 158 182 190 194 194 195 198 201 201 201 204 207 206 202 199 195 193 197 204 209 212 212 211 209 207 206 207 208 208 209 211 213 215
330 331 332 334 335 336 338 340 342 341 339 337 336 338 340 341 341 342 344 345 346 346 346 349 350 346 338 328 314 298 285 287 301 306 304 326 356 11 13 17 27 38 52 63 61 59 65 70 75 85 95 104 117 128 137 147 154 155 156 159 164 169 175 177 175 170 170 172 174 181 191 198 200 201 200 199 200 200 201 203 205 206 208 210 211
329 327 327 329 331 333 333 334 335 335 336 337 338 339 340 341 343 345 346 347 347 348 351 354 357 358 353 343 334 330 312 302 309 298 256 326 6 20 18 19 31 45 61 74 75 71 74 76 79 83 87 91 99 108 115 124 129 130 131 134 138 143 148 149 148 147 149 154 162 171 179 184 188 188 188 190 195 199 200 201 201 201 203 206 208
331 328 326 326 328 329 329 330 332 334 336 337 337 337 339 341 343 346 348 348 349 352 355 359 3 5 5 2 1 1 346 328 340 93 173 321 18 29 26 27 35 51 72 91 97 94 90 86 85 86 86 88 92 98 104 113 119 122 125 127 128 131 131 131 134 140 145 151 159 165 168 172 176 178 179 181 184 189 194 196 197 199 204 210 214
331 331 331 330 330 330 329 330 332 334 334 334 334 336 339 342 344 348 350 350 351 356 1 4 6 9 9 10 14 15 11 22 69 108 128 87 42 32 29 28 33 53 82 104 115 115 107 99 97 97 96 95 96 98 102 108 115 121 125 127 128 131 131 131 133 137 139 144 149 152 155 160 165 169 173 177 180 185 191 197 202 210 217 223 229
338 335 335 334 333 333 332 333 334 334 334 334 336 338 341 343 345 349 351 352 356 3 8 10 13 14 12 13 18 22 21 34 70 97 105 98 66 27 22 23 28 52 89 108 119 122 116 108 103 101 102 104 106 105 107 111 115 120 125 128 132 134 133 134 136 137 139 142 144 147 152 158 162 167 173 179 186 194 205 214 222 229 236 240 244
352 346 344 343 342 339 337 336 337 337 337 338 338 340 342 344 346 349 353 358 4 10 13 16 18 20 19 19 24 31 35 47 64 79 93 97 81 49 38 34 36 61 93 110 120 123 118 111 105 103 106 113 116 117 118 117 114 110 107 111 122 131 134 137 140 142 145 149 152 157 163 168 174 181 189 198 208 217 226 233 238 243 248 252 256
3 358 356 356 356 353 349 345 343 343 342 342 342 344 345 345 347 352 358 5 12 15 16 18 20 22 23 27 32 42 54 63 69 71 75 74 67 67 68 65 66 77 92 106 118 122 118 114 111 110 114 119 122 125 127 125 123 122 120 120 125 132 136 139 142 144 147 151 156 164 175 184 194 204 215 226 233 240 246 250 254 258 261 264 267
8 5 3 3 6 7 5 360 355 353 351 349 349 351 350 349 351 356 2 9 16 17 17 19 20 21 24 28 35 45 58 68 72 74 75 74 75 78 81 83 84 87 91 99 110 114 112 112 113 115 119 125 129 134 137 138 140 140 137 133 133 134 134 135 137 141 149 161 173 194 213 227 235 240 245 251 253 257 260 262 264 267 268 270 272
9 7 5 5 6 8 11 10 7 4 1 358 357 357 356 355 355 357 2 9 15 17 18 20 20 20 21 24 29 37 49 61 70 74 76 78 78 77 76 76 78 83 89 98 106 111 110 113 116 119 126 134 140 145 149 154 155 149 140 137 140 144 149 160 174 189 206 219 229 237 243 250 253 255 258 261 262 264 266 267 269 271 272 273 275
6 7 6 5 3 2 4 7 9 10 7 3 359 358 357 356 355 356 1 7 11 12 16 18 19 20 21 20 20 24 32 43 55 63 68 70 70 68 67 68 68 73 84 98 112 123 131 141 152 161 167 167 164 166 172 175 175 170 168 177 187 193 200 211 221 229 235 242 248 252 256 260 263 265 266 268 269 271 273 274 275 276 276 277 277
2 4 5 5 4 2 1 1 3 5 6 4 360 356 354 353 352 354 1 7 7 7 10 13 15 18 20 18 16 16 16 20 27 36 43 51 56 57 58 58 57 59 70 87 110 131 145 159 170 179 185 188 186 189 192 193 194 197 203 210 216 221 226 234 242 247 252 257 260 263 266 269 271 273 274 275 276 277 277 277 277 277 277 277 278
359 360 1 2 3 3 2 1 0 360 360 360 359 355 352 350 348 350 357 5 6 4 5 7 9 9 10 10 10 9 6 6 8 11 14 19 22 23 26 28 23 16 12 4 13 161 177 183 181 182 189 195 198 203 209 211 212 218 224 230 236 241 247 253 257 260 263 268 270 273 276 278 278 279 279 279 278 278 277 277 277 278 279 281 283
Height
2841 2836 2833 2830 2827 2824 2821 2819 2818 2816 2814 2813 2812 2812 2811 2810 2811 2812 2813 2814 2815 2816 2818 2821 2824 2828 2831 2833 2835 2837 2839 2841 2843 2846 2848 2849 2851 2852 2854 2855 2857 2859 2862 2865 2867 2869 2871 2873 2875 2877 2880 2881 2883 2885 2888 2891 2894 2897 2900 2903 2906 2910 2914 2916 2919 2925 2930 2933 2938 2942 2945 2948 2950 2954 2959 2962 2966 2970 2974 2978 2982 2985 2989 2993 2997
2835 2831 2827 2824 2821 2818 2815 2812 2811 2809 2807 2806 2805 2804 2804 2804 2804 2805 2806 2807 2808 2810 2812 2815 2818 2821 2825 2827 2829 2830 2832 2835 2838 2840 2842 2844 2846 2847 2849 2851 2852 2854 2857 2860 2862 2864 2866 2868 2870 2873 2875 2876 2878 2880 2883 2885 2888 2891 2894 2897 2900 2904 2908 2911 2914 2918 2922 2926 2931 2935 2938 2942 2945 2949 2952 2956 2960 2963 2966 2970 2973 2977 2981 2985 2989
2830 2826 2822 2818 2815 2812 2809 2806 2803 2801 2800 2798 2798 2798 2797 2797 2798 2798 2799 2800 2802 2803 2806 2809 2812 2815 2818 2821 2822 2824 2827 2830 2833 2835 2838 2839 2841 2842 2844 2846 2847 2849 2852 2855 2858 2860 2862 2864 2866 2869 2871 2872 2874 2876 2877 2880 2882 2885 2888 2891 2894 2898 2902 2905 2909 2913 2916 2919 2924 2928 2932 2935 2939 2943 2946 2949 2952 2955 2958 2962 2965 2969 2973 2977 2982
2826 2822 2818 2814 2811 2807 2804 2801 2797 2795 2793 2792 2791 2791 2790 2791 2791 2792 2793 2794 2796 2798 2800 2803 2806 2808 2811 2814 2815 2818 2822 2826 2828 2830 2833 2834 2836 2838 2839 2841 2843 2844 2847 2850 2854 2857 2858 2860 2862 2865 2867 2868 2869 2871 2873 2875 2877 2880 2882 2885 2888 2892 2896 2899 2903 2907 2911 2913 2917 2922 2926 2929 2932 2936 2939 2942 2944 2947 2951 2954 2957 2961 2966 2970 2974
2823 2819 2815 2811 2808 2804 2800 2797 2793 2790 2788 2786 2785 2784 2784 2784 2785 2786 2788 2789 2790 2792 2794 2797 2799 2802 2805 2808 2810 2813 2818 2821 2823 2826 2828 2830 2831 2833 2835 2837 2839 2841 2843 2846 2849 2852 2854 2856 2859 2861 2863 2864 2865 2867 2869 2870 2872 2875 2877 2879 2882 2885 2889 2892 2895 2900 2904 2907 2910 2915 2919 2922 2925 2929 2932 2935 2938 2941 2944 2947 2951 2954 2958 2962 2967
2821 2817 2813 2809 2805 2802 2798 2794 2791 2787 2785 2783 2781 2780 2779 2779 2780 2782 2783 2784 2786 2788 2791 2793 2796 2798 2801 2803 2805 2809 2813 2816 2818 2821 2823 2825 2827 2829 2831 2833 2835 2837 2839 2842 2845 2848 2850 2853 2855 2857 2859 2860 2862 2863 2865 2866 2868 2870 2872 2875 2877 2879 2882 2885 2889 2893 2896 2900 2904 2908 2912 2916 2919 2922 2926 2929 2932 2934 2937 2940 2944 2947 2951 2954 2959
2820 2816 2812 2809 2805 2802 2798 2793 2789 2786 2783 2781 2779 2777 2776 2776 2776 2778 2780 2781 2784 2786 2788 2791 2793 2795 2797 2799 2802 2805 2809 2812 2814 2817 2819 2821 2823 2824 2826 2828 2831 2833 2835 2838 2841 2844 2846 2849 2851 2853 2855 2856 2858 2859 2861 2862 2863 2866 2868 2870 2872 2874 2877 2879 2883 2886 2889 2893 2896 2900 2905 2910 2913 2916 2920 2923 2925 2927 2931 2934 2938 2941 2945 2948 2950
2819 2816 2812 2809 2806 2802 2798 2794 2790 2786 2783 2780 2778 2776 2775 2775 2775 2776 2778 2780 2782 2783 2785 2787 2789 2791 2794 2796 2799 2802 2805 2808 2810 2812 2814 2816 2818 2820 2822 2824 2826 2828 2831 2833 2836 2839 2842 2845 2847 2849 2851 2853 2854 2855 2857 2858 2860 2862 2864 2866 2868 2870 2872 2875 2878 2880 2883 2887 2889 2892 2897 2902 2905 2909 2913 2914 2917 2921 2926 2929 2932 2935 2938 2940 2943
2819 2816 2813 2810 2806 2802 2798 2795 2792 2788 2785 2782 2779 2777 2776 2775 2775 2776 2777 2779 2780 2781 2783 2785 2787 2789 2791 2793 2795 2798 2801 2804 2806 2808 2810 2812 2813 2816 2818 2820 2822 2824 2826 2829 2832 2835 2838 2840 2843 2846 2848 2849 2851 2852 2853 2854 2856 2858 2860 2862 2864 2866 2868 2871 2873 2876 2878 2881 2883 2886 2889 2893 2897 2902 2905 2908 2913 2918 2921 2924 2926 2928 2930 2932 2935
2819 2816 2814 2810 2807 2803 2800 2797 2794 2791 2787 2784 2781 2779 2778 2777 2777 2777 2778 2779 2780 2781 2783 2784 2786 2788 2789 2791 2793 2795 2797 2800 2802 2804 2806 2808 2810 2812 2814 2816 2818 2820 2822 2825 2828 2831 2834 2837 2839 2842 2844 2846 2847 2848 2849 2851 2852 2854 2856 2858 2860 2862 2864 2867 2869 2872 2874 2876 2878 2880 2883 2886 2890 2895 2899 2905 2910 2912 2913 2916 2919 2922 2923 2925 2928
2820 2818 2815 2812 2808 2805 2803 2800 2797 2794 2791 2788 2785 2783 2781 2780 2779 2779 2779 2780 2781 2782 2783 2785 2786 2787 2789 2790 2792 2794 2796 2798 2799 2801 2802 2804 2806 2808 2810 2812 2814 2816 2818 2820 2824 2827 2831 2833 2836 2838 2840 2842 2843 2845 2846 2848 2849 2851 2852 2854 2856 2858 2860 2863 2866 2868 2869 2871 2873 2875 2878 2881 2885 2889 2894 2898 2902 2904 2907 2910 2912 2914 2917 2919 2922
2822 2819 2816 2813 2811 2808 2805 2803 2800 2797 2794 2792 2790 2787 2786 2784 2783 2783 2783 2783 2784 2784 2785 2786 2787 2788 2789 2790 2792 2793 2794 2796 2797 2798 2800 2801 2802 2804 2805 2807 2809 2811 2814 2816 2820 2823 2827 2830 2833 2835 2837 2839 2840 2842 2843 2844 2846 2848 2849 2851 2853 2855 2857 2859 2862 2864 2866 2867 2868 2870 2874 2878 2881 2883 2887 2891 2894 2898 2901 2903 2904 2908 2911 2914 2916
2823 2821 2818 2816 2813 2811 2808 2806 2803 2801 2798 2796 2794 2792 2790 2789 2788 2787 2787 2787 2787 2788 2788 2788 2789 2790 2790 2791 2792 2792 2793 2794 2795 2796 2797 2798 2799 2800 2801 2803 2805 2807 2810 2813 2816 2819 2823 2826 2829 2831 2833 2835 2837 2838 2840 2841 2843 2844 2846 2848 2850 2851 2853 2855 2857 2860 2862 2863 2864 2867 2870 2874 2876 2879 2881 2885 2888 2890 2893 2895 2898 2902 2905 2908 2911
2825 2823 2820 2818 2816 2814 2811 2809 2807 2804 2802 2800 2798 2797 2795 2794 2793 2792 2791 2791 2791 2791 2791 2791 2791 2792 2792 2792 2792 2793 2793 2793 2794 2794 2795 2796 2796 2797 2798 2799 2801 2803 2806 2809 2812 2815 2819 2822 2825 2828 2830 2832 2834 2835 2837 2838 2840 2841 2843 2844 2846 2847 2849 2851 2853 2855 2857 2859 2861 2864 2867 2870 2872 2875 2877 2879 2881 2883 2886 2890 2893 2895 2898 2901 2904
2826 2824 2823 2821 2819 2817 2814 2812 2810 2808 2806 2804 2802 2801 2799 2798 2797 2796 2796 2795 2795 2794 2794 2794 2794 2794 2794 2794 2794 2794 2794 2794 2793 2793 2793 2793 2794 2794 2795 2796 2797 2799 2802 2805 2809 2812 2816 2818 2821 2824 2827 2829 2830 2832 2834 2835 2837 2838 2839 2841 2842 2844 2846 2847 2850 2851 2853 2855 2857 2860 2862 2865 2868 2870 2872 2874 2876 2879 2881 2884 2886 2889 2891 2894 2896
2828 2826 2825 2823 2821 2819 2817 2815 2813 2811 2809 2808 2806 2804 2803 2802 2800 2800 2799 2798 2797 2797 2796 2796 2796 2796 2795 2796 2795 2795 2795 2794 2794 2793 2793 2792 2792 2792 2793 2794 2795 2797 2800 2803 2806 2810 2812 2815 2817 2820 2822 2825 2827 2829 2830 2832 2833 2834 2836 2837 2839 2841 2842 2845 2846 2848 2849 2851 2853 2855 2857 2860 2863 2865 2868 2870 2872 2874 2876 2878 2880 2883 2886 2888 2891
2830 2829 2827 2825 2823 2821 2819 2817 2815 2814 2812 2810 2808 2807 2806 2805 2803 2802 2801 2801 2800 2799 2799 2798 2798 2797 2796 2796 2796 2796 2795 2795 2794 2794 2793 2792 2792 2792 2792 2793 2794 2796 2798 2801 2804 2806 2809 2811 2813 2815 2817 2820 2823 2825 2827 2828 2829 2831 2832 2834 2836 2837 2839 2842 2843 2844 2846 2848 2849 2851 2853 2855 2858 2860 2863 2865 2868 2869 2872 2874 2877 2879 2882 2884 2887
2832 2831 2829 2827 2825 2823 2821 2819 2818 2816 2814 2812 2811 2810 2809 2807 2806 2805 2804 2803 2802 2801 2800 2799 2798 2797 2797 2796 2796 2795 2795 2794 2794 2794 2793 2793 2792 2792 2792 2792 2793 2794 2797 2799 2801 2803 2805 2806 2808 2810 2812 2815 2818 2821 2822 2824 2825 2827 2829 2831 2833 2834 2837 2839 2840 2841 2843 2844 2846 2848 2850 2851 2854 2856 2858 2861 2863 2865 2868 2871 2873 2875 2878 2881 2884
2834 2832 2831 2829 2827 2825 2823 2821 2820 2818 2816 2814 2813 2812 2811 2809 2808 2807 2806 2805 2804 2802 2801 2800 2798 2797 2796 2795 2794 2794 2793 2793 2792 2792 2792 2792 2792 2792 2792 2792 2793 2794 2795 2797 2799 2800 2802 2803 2804 2805 2807 2810 2813 2815 2818 2819 2821 2824 2826 2828 2829 2831 2834 2836 2837 2838 2840 2842 2843 2845 2846 2848 2850 2853 2855 2857 2860 2862 2865 2867 2869 2872 2874 2877 2879
2835 2834 2832 2830 2828 2827 2825 2823 2821 2819 2817 2816 2815 2814 2812 2811 2809 2808 2807 2805 2804 2802 2800 2799 2797 2796 2795 2794 2793 2792 2791 2791 2791 2790 2791 2791 2791 2791 2792 2792 2793 2794 2794 2796 2797 2798 2799 2800 2801 2802 2804 2806 2809 2811 2813 2816 2818 2821 2823 2824 2826 2829 2831 2833 2834 2835 2837 2838 2840 2842 2843 2845 2847 2849 2852 2854 2857 2859 2861 2863 2865 2868 2870 2872 2875
2837 2835 2833 2831 2830 2828 2826 2824 2822 2821 2819 2818 2816 2815 2813 2812 2811 2809 2807 2805 2803 2801 2799 2797 2795 2794 2792 2791 2790 2789 2789 2789 2788 2788 2789 2789 2789 2789 2790 2791 2792 2792 2793 2794 2795 2796 2797 2798 2799 2800 2801 2803 2805 2807 2810 2812 2815 2817 2819 2821 2824 2826 2828 2829 2830 2831 2833 2835 2837 2838 2840 2842 2844 2846 2848 2851 2853 2856 2858 2860 2862 2864 2866 2868 2871
2838 2836 2834 2833 2831 2829 2827 2825 2823 2822 2820 2819 2818 2816 2814 2813 2811 2809 2807 2805 2803 2801 2798 2796 2794 2793 2791 2789 2788 2786 2786 2786 2786 2786 2786 2786 2787 2787 2787 2788 2789 2790 2791 2792 2793 2794 2795 2796 2797 2799 2800 2801 2803 2805 2807 2810 2812 2814 2816 2819 2821 2822 2823 2825 2826 2827 2829 2831 2833 2835 2837 2839 2840 2842 2845 2847 2850 2852 2854 2856 2858 2860 2862 2864 2866
2839 2837 2835 2833 2832 2830 2828 2826 2824 2823 2821 2820 2819 2817 2815 2814 2812 2810 2808 2806 2803 2801 2798 2796 2794 2792 2790 2788 2786 2784 2783 2782 2782 2782 2783 2783 2783 2784 2784 2785 2786 2787 2788 2789 2790 2791 2792 2794 2795 2796 2797 2799 2800 2802 2804 2806 2808 2810 2813 2815 2817 2818 2820 2821 2822 2824 2826 2827 2829 2831 2833 2835 2837 2839 2841 2844 2846 2849 2851 2852 2854 2856 2858 2860 2862
2840 2838 2836 2834 2833 2831 2829 2827 2825 2824 2822 2821 2819 2818 2816 2815 2812 2810 2808 2806 2804 2801 2798 2796 2794 2792 2790 2788 2786 2784 2782 2781 2780 2780 2780 2781 2781 2782 2782 2783 2783 2784 2785 2786 2787 2788 2789 2790 2791 2792 2794 2795 2797 2799 2801 2803 2805 2807 2809 2812 2814 2815 2816 2817 2819 2821 2822 2824 2826 2828 2830 2832 2835 2837 2839 2841 2843 2845 2847 2849 2850 2852 2854 2856 2858
2840 2839 2837 2835 2833 2831 2830 2828 2826 2825 2823 2822 2820 2818 2817 2815 2813 2811 2809 2807 2805 2802 2799 2796 2795 2793 2790 2788 2786 2784 2782 2781 2780 2779 2779 2779 2780 2780 2780 2781 2781 2781 2782 2783 2784 2784 2785 2786 2787 2788 2790 2791 2793 2795 2797 2799 2801 2803 2805 2808 2810 2811 2812 2814 2816 2817 2819 2821 2823 2825 2827 2829 2831 2834 2836 2837 2838 2840 2843 2845 2846 2848 2850 2852 2854
2841 2839 2838 2836 2834 2833 2831 2829 2827 2826 2824 2822 2820 2818 2817 2815 2813 2811 2809 2808 2805 2803 2800 2798 2796 2793 2791 2788 2786 2784 2783 2782 2780 2780 2779 2779 2779 2779 2779 2779 2779 2779 2779 2779 2780 2780 2781 2782 2783 2784 2785 2787 2789 2791 2793 2795 2797 2799 2801 2803 2805 2807 2808 2810 2812 2814 2816 2818 2820 2822 2824 2826 2828 2830 2831 2833 2834 2836 2838 2841 2842 2844 2845 2848 2849
2842 2841 2839 2837 2835 2834 2832 2830 2828 2826 2825 2823 2821 2819 2817 2815 2813 2812 2810 2808 2806 2803 2801 2798 2795 2793 2791 2789 2787 2785 2783 2782 2781 2781 2780 2780 2779 2779 2778 2778 2777 2776 2776 2776 2776 2776 2777 2778 2779 2780 2781 2783 2784 2786 2788 2791 2793 2795 2797 2799 2801 2803 2805 2807 2809 2811 2813 2815 2817 2819 2821 2822 2824 2826 2827 2829 2831 2832 2834 2836 2837 2839 2840 2842 2844
2843 2841 2839 2837 2836 2834 2833 2831 2829 2827 2825 2823 2821 2820 2818 2816 2814 2812 2809 2807 2805 2802 2799 2797 2795 2793 2791 2790 2788 2786 2785 2783 2782 2781 2781 2780 2780 2779 2778 2777 2776 2775 2774 2773 2773 2773 2773 2774 2775 2776 2777 2778 2780 2781 2784 2787 2789 2792 2794 2796 2798 2800 2802 2804 2806 2808 2810 2811 2813 2815 2817 2818 2820 2821 2823 2825 2826 2827 2829 2830 2832 2834 2835 2837 2839
2843 2842 2840 2838 2836 2835 2833 2831 2829 2827 2825 2823 2821 2820 2818 2816 2814 2812 2809 2806 2804 2801 2799 2797 2795 2793 2792 2790 2789 2787 2785 2784 2783 2782 2781 2781 2780 2778 2777 2776 2775 2774 2772 2772 2771 2771 2771 2771 2771 2772 2773 2774 2775 2777 2780 2782 2785 2788 2790 2793 2795 2797 2799 2801 2803 2805 2806 2808 2810 2811 2812 2814 2816 2817 2819 2820 2821 2822 2824 2825 2827 2829 2831 2832 2834
2844 2842 2840 2839 2837 2835 2833 2831 2829 2827 2825 2823 2821 2820 2818 2816 2814 2811 2809 2807 2804 2802 2800 2798 2796 2794 2792 2791 2789 2787 2786 2785 2784 2783 2782 2781 2779 2778 2777 2775 2774 2772 2771 2770 2770 2769 2770 2770 2770 2770 2771 2771 2772 2774 2776 2778 2781 2784 2786 2789 2791 2794 2795 2797 2800 2802 2804 2805 2806 2808 2809 2810 2812 2813 2815 2816 2818 2819 2820 2821 2823 2825 2826 2828 2830
2844 2842 2840 2839 2837 2835 2833 2832 2829 2827 2825 2824 2822 2820 2818 2816 2813 2811 2808 2807 2805 2803 2800 2798 2797 2794 2792 2791 2790 2788 2786 2785 2784 2783 2782 2780 2779 2778 2777 2775 2773 2772 2770 2769 2768 2768 2768 2769 2769 2770 2770 2770 2771 2772 2773 2775 2778 2780 2782 2785 2787 2789 2792 2794 2796 2798 2800 2801 2803 2804 2805 2807 2808 2809 2811 2812 2814 2815 2816 2818 2819 2821 2822 2824 2826
2844 2842 2840 2838 2837 2835 2833 2831 2829 2828 2826 2824 2822 2821 2819 2817 2815 2812 2808 2806 2804 2802 2800 2798 2796 2794 2792 2791 2789 2788 2787 2785 2784 2783 2782 2780 2779 2778 2777 2775 2773 2771 2770 2768 2767 2767 2767 2767 2768 2768 2769 2770 2770 2771 2772 2774 2775 2777 2779 2781 2784 2786 2788 2790 2792 2794 2796 2797 2799 2800 2802 2803 2805 2806 2807 2809 2810 2811 2813 2814 2816 2817 2819 2821 2823
2843 2841 2840 2838 2837 2835 2833 2831 2829 2828 2826 2824 2822 2820 2818 2817 2815 2813 2810 2806 2803 2801 2799 2798 2796 2794 2792 2791 2789 2788 2786 2785 2784 2783 2782 2780 2779 2778 2777 2775 2773 2771 2769 2768 2767 2766 2766 2766 2767 2767 2768 2769 2770 2771 2772 2773 2774 2776 2777 2779 2781 2783 2785 2787 2789 2790 2792 2793 2795 2797 2798 2800 2802 2803 2804 2805 2806 2808 2809 2810 2812 2814 2816 2818 2820
2842 2840 2839 2838 2837 2835 2833 2831 2829 2827 2826 2824 2822 2820 2818 2815 2813 2812 2810 2808 2804 2801 2799 2797 2795 2794 2792 2790 2788 2787 2786 2785 2784 2783 2782 2780 2779 2778 2776 2775 2773 2771 2769 2767 2766 2766 2765 2766 2766 2767 2768 2769 2770 2770 2772 2773 2774 2775 2776 2778 2779 2781 2782 2784 2785 2787 2789 2790 2792 2794 2795 2797 2798 2799 2800 2801 2803 2804 2806 2808 2810 2811 2813 2815 2817
2842 2840 2839 2838 2836 2835 2833 2831 2829 2827 2826 2824 2822 2819 2817 2815 2813 2810 2807 2805 2803 2801 2798 2796 2795 2793 2791 2790 2788 2787 2785 2784 2783 2782 2781 2780 2779 2778 2776 2775 2773 2771 2769 2767 2766 2766 2765 2765 2766 2767 2768 2768 2769 2770 2771 2772 2773 2774 2775 2776 2778 2779 2780 2782 2784 2785 2787 2788 2789 2791 2792 2793 2795 2796 2797 2799 2800 2802 2804 2805 2807 2809 2811 2813 2814
2843 2841 2840 2838 2836 2835 2833 2831 2829 2827 2825 2823 2821 2819 2817 2815 2812 2809 2806 2803 2801 2799 2796 2794 2793 2791 2789 2788 2787 2786 2785 2783 2782 2781 2780 2780 2779 2777 2776 2775 2773 2771 2770 2768 2767 2766 2766 2766 2766 2767 2768 2769 2769 2770 2771 2772 2773 2774 2775 2776 2777 2778 2779 2781 2782 2783 2785 2786 2787 2788 2790 2791 2792 2794 2795 2797 2799 2800 2802 2804 2805 2807 2809 2810 2812
2844 2842 2840 2838 2836 2834 2832 2830 2828 2827 2825 2823 2821 2819 2817 2814 2812 2809 2806 2803 2800 2797 2794 2792 2790 2789 2787 2786 2785 2785 2784 2782 2781 2780 2780 2779 2778 2777 2776 2775 2774 2772 2771 2769 2768 2767 2767 2767 2767 2768 2768 2769 2770 2770 2771 2772 2773 2774 2775 2776 2777 2778 2779 2780 2781 2782 2783 2784 2785 2786 2788 2789 2791 2792 2794 2795 2797 2799 2800 2802 2803 2805 2806 2808 2810
2843 2841 2840 2838 2836 2834 2832 2830 2828 2826 2824 2823 2821 2819 2817 2814 2811 2808 2805 2801 2798 2795 2793 2791 2789 2788 2786 2785 2784 2783 2782 2781 2780 2780 2779 2779 2778 2777 2776 2775 2774 2773 2772 2771 2770 2769 2768 2768 2768 2768 2769 2769 2770 2771 2771 2772 2773 2774 2774 2775 2776 2777 2778 2779 2780 2781 2782 2783 2784 2785 2787 2788 2790 2791 2792 2794 2796 2797 2799 2800 2802 2803 2805 2807 2808
2843 2841 2839 2837 2835 2833 2831 2830 2828 2826 2824 2822 2820 2818 2816 2813 2810 2807 2804 2801 2797 2794 2792 2790 2788 2786 2785 2784 2783 2782 2781 2780 2780 2779 2779 2778 2778 2777 2776 2775 2774 2773 2773 2772 2771 2770 2770 2769 2769 2770 2770 2770 2770 2771 2771 2772 2773 2773 2774 2775 2776 2777 2778 2779 2780 2781 2782 2783 2784 2785 2786 2788 2789 2791 2792 2794 2795 2797 2798 2800 2801 2802 2804 2805 2807
2843 2841 2839 2837 2835 2833 2831 2829 2827 2826 2824 2822 2820 2817 2815 2812 2809 2806 2803 2800 2797 2794 2792 2790 2788 2786 2784 2783 2782 2781 2780 2780 2780 2779 2779 2778 2778 2777 2777 2776 2775 2774 2774 2773 2773 2772 2772 2771 2771 2771 2771 2771 2771 2772 2772 2772 2773 2774 2774 2775 2776 2777 2778 2779 2780 2781 2782 2783 2784 2785 2787 2788 2789 2791 2792 2794 2795 2796 2797 2799 2800 2801 2803 2804 2805
2842 2840 2838 2836 2834 2832 2830 2828 2827 2825 2823 2821 2819 2817 2814 2812 2809 2806 2802 2799 2796 2794 2792 2790 2788 2786 2785 2783 2782 2781 2780 2780 2779 2779 2778 2778 2778 2777 2777 2776 2775 2775 2775 2774 2774 2774 2773 2773 2773 2773 2773 2773 2773 2773 2773 2773 2774 2774 2775 2776 2777 2778 2779 2780 2781 2782 2783 2784 2785 2786 2787 2789 2790 2791 2792 2793 2795 2796 2797 2798 2799 2801 2802 2803 2804
2840 2838 2837 2835 2833 2831 2829 2827 2826 2824 2822 2820 2818 2816 2814 2811 2808 2806 2802 2799 2797 2794 2792 2790 2788 2787 2785 2784 2783 2782 2781 2780 2779 2779 2778 2778 2778 2778 2777 2776 2775 2775 2775 2775 2775 2775 2775 2775 2774 2774 2774 2774 2774 2774 2775 2775 2775 2776 2776 2777 2778 2779 2780 2781 2782 2783 2784 2785 2786 2787 2788 2789 2790 2791 2792 2793 2795 2796 2797 2798 2799 2800 2801 2802 2804
2838 2837 2835 2833 2832 2830 2828 2826 2824 2823 2821 2819 2817 2815 2813 2811 2808 2805 2803 2800 2797 2795 2793 2791 2789 2788 2786 2785 2784 2782 2781 2780 2779 2779 2779 2778 2778 2778 2777 2777 2776 2775 2775 2776 2776 2776 2776 2776 2775 2775 2775 2775 2775 2776 2776 2776 2777 2777 2777 2778 2778 2779 2780 2781 2782 2783 2784 2785 2786 2787 2788 2789 2791 2792 2793 2794 2795 2796 2797 2798 2799 2800 2800 2801 2802
2838 2835 2833 2832 2830 2828 2827 2825 2823 2822 2820 2818 2816 2814 2812 2810 2808 2805 2803 2801 2799 2796 2794 2792 2790 2789 2787 2786 2784 2783 2782 2781 2780 2780 2779 2779 2779 2778 2778 2777 2777 2776 2776 2776 2777 2777 2777 2777 2776 2776 2776 2776 2776 2777 2777 2777 2778 2778 2779 2779 2779 2780 2781 2782 2783 2784 2785 2786 2787 2788 2789 2790 2791 2792 2792 2793 2794 2795 2796 2797 2798 2799 2799 2800 2801
2838 2835 2832 2830 2829 2827 2826 2824 2822 2821 2819 2817 2815 2814 2812 2810 2808 2806 2804 2802 2800 2797 2796 2794 2792 2790 2788 2787 2785 2784 2783 2782 2782 2781 2780 2780 2780 2779 2779 2778 2777 2777 2777 2777 2777 2777 2778 2778 2777 2777 2777 2777 2777 2778 2778 2779 2779 2780 2781 2781 2781 2782 2783 2783 2784 2785 2786 2786 2787 2788 2789 2790 2791 2791 2792 2793 2794 2795 2795 2796 2797 2798 2798 2798 2799
2838 2836 2833 2830 2828 2827 2825 2823 2822 2820 2818 2817 2815 2813 2812 2810 2808 2806 2805 2803 2801 2799 2797 2795 2794 2792 2790 2788 2787 2786 2784 2784 2783 2782 2782 2781 2781 2780 2780 2779 2778 2778 2778 2778 2778 2778 2778 2778 2778 2778 2778 2778 2778 2779 2779 2779 2780 2781 2781 2782 2783 2783 2784 2784 2785 2786 2786 2787 2788 2788 2789 2790 2790 2791 2792 2793 2793 2794 2794 2795 2795 2796 2796 2796 2796
2840 2837 2834 2831 2829 2826 2825 2823 2821 2820 2818 2817 2815 2813 2812 2810 2808 2807 2805 2803 2802 2800 2798 2797 2795 2794 2792 2791 2789 2787 2786 2785 2784 2784 2783 2783 2782 2781 2780 2780 2780 2779 2779 2779 2779 2779 2779 2779 2779 2779 2779 2779 2779 2779 2780 2780 2781 2781 2782 2782 2783 2783 2784 2784 2785 2786 2786 2787 2787 2788 2788 2789 2790 2790 2791 2792 2792 2792 2793 2793 2793 2793 2793 2793 2793
2841 2838 2836 2833 2830 2828 2825 2823 2821 2820 2818 2817 2815 2813 2811 2810 2809 2807 2806 2804 2803 2801 2800 2798 2797 2795 2794 2793 2791 2790 2788 2787 2786 2785 2785 2784 2783 2782 2782 2781 2781 2780 2780 2780 2780 2780 2780 2780 2780 2780 2780 2780 2780 2780 2780 2781 2781 2781 2782 2782 2783 2783 2784 2784 2785 2785 2786 2786 2787 2787 2788 2789 2789 2789 2790 2790 2790 2790 2790 2790 2790 2791 2790 2790 2790
2843 2840 2837 2834 2832 2829 2826 2824 2822 2820 2818 2817 2815 2813 2812 2810 2809 2808 2806 2805 2804 2802 2801 2800 2798 2797 2795 2794 2793 2792 2791 2789 2788 2787 2786 2785 2785 2784 2783 2783 2782 2782 2781 2781 2781 2781 2781 2780 2780 2780 2780 2780 2781 2781 2781 2781 2781 2782 2782 2783 2783 2783 2784 2784 2785 2785 2786 2786 2786 2787 2787 2787 2788 2788 2788 2788 2788 2788 2788 2787 2787 2787 2787 2786 2786
2844 2841 2838 2835 2833 2830 2828 2825 2823 2820 2818 2817 2815 2814 2812 2810 2809 2808 2806 2805 2804 2803 2802 2801 2799 2798 2796 2795 2794 2793 2792 2791 2790 2789 2788 2787 2786 2785 2785 2784 2784 2783 2783 2782 2782 2782 2781 2781 2781 2781 2781 2781 2781 2781 2781 2782 2782 2782 2782 2783 2783 2783 2784 2784 2784 2785 2785 2785 2785 2786 2786 2786 2786 2785 2785 2785 2785 2785 2785 2784 2784 2784 2784 2783 2783
2844 2842 2839 2836 2834 2831 2829 2827 2824 2822 2820 2817 2815 2814 2812 2811 2809 2808 2806 2805 2804 2803 2802 2801 2800 2798 2797 2796 2795 2794 2793 2792 2791 2790 2788 2788 2787 2786 2785 2785 2784 2784 2784 2783 2783 2782 2782 2781 2781 2781 2781 2781 2781 2781 2781 2782 2782 2782 2782 2783 2783 2783 2783 2783 2783 2784 2784 2784 2784 2784 2783 2783 2783 2783 2782 2782 2782 2782 2782 2782 2782 2782 2781 2780 2780